Theta_e
308 307 308 309 309 308 309 310 307 307 308 307 307 306 307 309 309 312 312 306 308 305 306 309 308 309 309 313 317 325 327 326 327 326 325 326 326 325 325 325 325 325 325 324 323
309 310 310 310 310 310 309 309 309 306 306 306 306 306 309 310 313 313 312 306 309 306 308 308 309 309 311 312 316 322 322 324 325 326 326 326 325 325 324 325 325 324 323 322 321
309 310 310 310 311 311 310 309 310 307 303 304 304 307 308 313 314 312 310 304 304 311 307 307 309 312 310 312 314 317 319 322 325 325 325 325 322 322 322 324 325 321 321 320 321
309 309 309 310 310 310 310 309 309 308 303 301 302 306 311 314 312 313 309 308 309 308 307 308 309 311 311 311 312 314 315 318 320 322 320 323 317 319 319 321 319 318 318 320 320
308 310 310 310 309 309 309 309 309 307 302 300 304 307 311 313 315 315 311 309 309 308 311 312 310 311 311 310 310 312 313 312 313 313 315 315 318 318 317 315 315 317 317 318 319
308 308 309 310 309 308 308 309 309 306 302 301 305 311 313 309 311 313 314 311 311 311 313 312 312 311 311 311 311 310 311 311 311 312 312 313 315 315 316 315 315 317 317 318 319
308 307 307 308 309 309 309 309 308 306 303 303 306 312 312 306 311 313 313 312 311 312 312 312 312 310 311 311 310 310 311 311 311 312 312 312 313 314 312 314 314 315 315 315 316
307 306 305 305 307 309 308 307 304 303 301 303 309 313 310 306 312 313 312 311 311 312 312 310 309 309 310 309 309 310 309 310 309 310 311 312 315 313 312 313 313 313 313 314 315
304 305 304 305 307 306 305 309 311 304 302 306 312 311 314 313 313 310 310 309 307 308 310 309 309 309 309 310 311 310 309 310 312 312 312 312 312 312 312 312 313 313 313 313 315
304 305 306 305 306 305 309 311 311 310 311 312 313 314 313 315 314 311 309 308 308 308 309 309 309 310 310 311 312 312 311 311 312 312 313 312 312 312 312 311 312 313 313 313 314
304 306 306 306 305 306 310 308 310 309 315 311 312 312 311 312 311 309 309 308 309 309 309 308 310 311 311 311 311 311 311 311 311 311 312 312 312 311 312 312 312 312 313 314 313
304 305 306 307 306 308 308 311 310 310 312 309 310 311 311 311 311 312 309 310 309 310 307 308 310 310 309 309 309 310 310 311 313 312 311 311 311 311 311 312 312 312 312 313 312
305 305 306 306 308 309 309 309 309 307 311 310 309 310 310 311 311 312 309 309 310 309 307 308 309 308 309 310 311 311 312 313 311 311 311 311 309 311 310 310 311 312 312 311 311
304 306 307 307 308 309 310 309 310 306 315 313 312 311 310 310 310 310 309 310 308 309 307 308 308 309 309 310 313 312 313 312 311 311 310 310 307 310 310 310 311 312 314 314 313
308 308 305 308 310 310 309 311 309 309 316 314 310 309 308 310 310 310 308 309 310 309 308 309 309 309 309 310 312 311 312 312 311 311 311 309 310 310 310 310 312 311 313 315 315
310 308 306 310 309 308 311 310 311 318 316 311 309 309 309 309 309 310 310 308 308 309 308 309 307 308 309 312 311 311 311 309 309 311 310 309 310 310 310 311 312 310 311 313 316
310 307 307 308 309 312 311 310 317 318 310 310 309 310 309 312 311 311 311 310 310 310 311 309 308 309 311 311 311 310 311 311 310 309 308 310 310 310 310 311 311 310 311 313 315
312 312 312 313 313 313 309 314 320 313 309 310 309 310 310 312 312 312 312 312 312 309 310 312 311 312 313 311 311 311 311 312 311 309 308 309 310 310 310 310 311 311 313 314 313
311 313 313 312 311 311 312 317 316 313 311 311 311 310 311 312 311 311 313 313 313 312 313 312 310 310 311 311 311 311 312 310 311 311 312 310 310 310 310 311 311 312 314 313 313
309 310 312 310 309 309 314 315 315 312 311 310 310 309 311 310 311 311 312 313 313 313 312 313 315 312 311 310 309 311 310 312 313 313 312 310 310 310 310 310 311 313 312 312 313
308 314 310 309 308 312 316 314 314 313 310 312 311 310 310 311 311 312 312 312 312 313 313 313 315 313 312 312 312 311 312 313 313 314 313 312 310 311 311 311 312 311 312 312 314
306 312 309 308 313 307 313 310 308 310 310 311 311 311 311 311 312 311 311 310 312 312 315 313 314 315 312 311 310 310 312 313 316 315 315 315 313 311 311 311 311 312 312 312 314
307 309 308 307 314 310 307 307 307 309 311 311 311 310 310 311 312 311 311 310 310 312 312 314 316 316 312 310 310 312 311 312 312 313 313 315 314 311 311 312 313 313 313 313 314
304 307 304 304 303 305 305 305 310 309 309 308 309 308 309 309 310 310 310 309 308 309 309 311 314 314 313 311 311 312 312 312 313 317 314 314 314 313 313 314 314 314 314 314 313
302 304 302 302 303 304 305 306 308 309 307 307 308 307 308 309 309 309 309 308 308 308 309 311 312 312 312 312 312 312 313 313 313 314 315 313 313 313 313 314 314 314 314 313 313
303 303 301 303 302 304 304 306 307 307 306 305 306 307 307 308 308 308 307 307 308 308 310 312 313 313 313 313 313 313 312 311 311 312 313 314 315 313 314 314 314 313 314 314 313
298 298 303 301 302 303 302 304 305 304 304 305 306 305 305 304 305 306 306 307 307 309 310 311 312 312 311 309 311 312 312 312 312 312 313 316 314 314 314 313 314 314 313 313 312
Wind_Speed
18 17 17 17 17 17 17 16 15 14 13 13 13 15 17 17 18 11 6 4 2 11 3 3 1 4 3 4 3 3 7 11 15 13 9 6 3 4 4 10 4 2 8 12 19
19 19 19 19 18 18 17 17 16 15 13 13 13 15 16 15 12 8 4 4 3 6 1 2 4 5 4 5 5 8 9 14 8 13 9 4 2 6 5 11 10 8 8 14 20
20 20 20 20 20 19 18 17 17 15 12 11 12 14 14 11 4 2 2 5 7 4 2 2 3 2 4 4 6 6 12 8 10 8 7 9 5 4 3 11 11 14 18 18 15
21 21 21 21 21 21 19 18 16 15 11 9 10 13 13 3 2 1 3 6 5 4 3 4 4 6 4 7 4 7 7 11 11 9 5 13 8 7 9 9 12 14 18 10 13
23 22 22 21 21 21 20 18 16 14 10 7 7 9 4 2 4 0 5 5 5 5 3 3 6 4 5 4 4 6 5 5 6 8 11 9 17 16 12 8 12 12 13 15 12
24 23 23 23 22 21 20 18 16 12 8 4 4 5 2 3 2 1 7 7 5 4 3 5 2 3 2 3 5 3 4 7 6 9 6 11 19 8 3 5 8 9 11 9 6
26 25 24 24 23 21 20 18 15 11 5 3 1 1 1 9 4 2 6 8 8 6 2 5 3 3 3 3 1 1 6 7 10 11 10 8 18 14 4 1 2 7 6 7 9
27 27 26 24 24 22 20 17 13 8 5 4 4 2 5 3 6 9 7 7 9 9 7 4 4 1 3 3 2 3 3 6 2 2 5 10 12 9 7 8 5 4 7 8 9
29 28 27 25 24 21 16 5 4 4 6 8 3 2 5 7 3 4 6 3 3 4 2 2 3 1 2 2 3 2 4 4 3 4 3 5 6 1 5 6 8 6 6 6 9
27 27 27 24 19 16 5 9 12 10 9 5 1 3 4 2 4 4 3 6 3 4 3 2 2 3 2 4 4 3 3 2 5 1 6 6 7 8 11 6 7 8 7 6 6
26 26 25 21 12 8 6 3 0 2 2 5 1 4 5 8 4 2 2 3 2 3 3 1 5 7 6 10 3 2 3 4 3 1 9 10 13 12 13 11 10 9 8 6 6
27 25 21 13 5 3 5 3 2 3 5 6 9 8 9 4 3 4 3 3 3 4 2 3 7 5 4 3 6 6 5 5 5 5 7 13 17 15 14 9 8 6 5 9 7
28 24 17 6 4 5 6 4 12 5 3 4 4 3 2 8 4 5 7 4 4 3 5 6 1 4 3 4 6 5 6 4 4 5 7 9 13 1 4 6 2 5 4 5 7
24 18 9 4 3 2 2 12 13 7 3 0 1 3 4 3 4 6 9 4 3 4 4 5 1 6 3 5 7 7 8 4 4 5 7 2 6 6 3 5 6 8 6 7 6
19 14 6 3 3 2 7 16 1 2 2 2 2 2 2 4 4 2 3 3 10 7 4 0 5 7 7 4 6 1 5 2 4 9 5 6 5 1 6 6 7 7 5 7 6
14 11 4 4 3 5 13 6 1 2 2 1 2 3 4 2 2 4 3 1 1 6 5 12 2 4 4 4 3 5 3 0 1 2 5 2 4 4 6 8 5 8 8 10 8
12 8 5 4 2 11 11 1 1 3 3 1 2 4 5 3 2 2 3 4 7 5 9 5 5 1 3 5 3 4 0 4 3 4 3 2 7 9 7 11 10 13 14 10 11
8 5 3 3 9 9 3 2 3 0 1 2 4 10 5 1 2 3 3 3 3 2 6 6 8 7 4 5 5 4 3 3 5 4 6 5 8 2 4 6 10 12 10 8 12
9 3 1 8 8 7 1 2 2 2 3 4 8 4 2 1 5 4 3 2 1 5 2 3 6 1 3 1 2 4 6 2 5 2 6 6 7 9 9 7 4 3 3 10 13
8 4 2 12 6 2 1 2 2 2 2 2 3 3 4 2 7 4 3 2 2 4 12 6 5 1 3 2 1 5 9 3 2 4 6 6 12 9 8 10 6 7 9 12 14
3 1 5 10 2 3 1 3 4 4 4 3 3 7 8 9 7 6 4 4 5 4 5 3 4 2 4 7 14 6 6 2 2 3 4 6 5 3 5 7 11 11 10 14 15
4 1 8 6 1 1 1 2 5 5 3 5 4 7 7 3 5 6 8 6 6 7 6 9 5 10 11 3 4 5 10 11 7 6 5 4 10 4 9 5 6 14 18 17 14
3 3 5 5 1 2 4 4 4 3 3 2 2 2 2 2 4 5 6 1 1 6 3 4 4 3 3 2 1 5 8 10 9 4 13 10 10 4 6 15 20 20 17 15 14
3 4 3 4 2 2 4 4 4 3 1 4 4 3 1 3 5 5 4 2 1 2 4 1 5 9 10 9 1 5 6 10 14 10 14 20 32 23 25 24 19 18 14 12 14
4 1 1 3 1 3 1 3 5 4 4 5 2 4 3 4 6 10 10 6 5 10 10 5 12 14 19 19 17 19 18 19 20 21 19 22 26 24 23 20 18 13 12 15 15
3 3 1 3 3 3 3 3 2 1 2 6 7 6 7 7 10 17 17 13 11 6 5 3 6 4 13 11 14 20 22 25 25 24 24 26 28 28 23 18 12 13 13 15 18
3 1 2 1 1 2 1 1 1 4 6 9 5 12 13 16 13 12 12 14 13 8 5 4 5 5 12 7 8 13 25 25 22 19 17 17 18 15 13 14 13 12 16 20 22
Wind_Direction
351 346 343 340 338 335 331 329 325 323 320 320 320 320 321 319 314 306 248 227 12 231 199 255 148 151 154 189 184 163 226 235 228 231 236 183 193 231 253 278 292 295 321 326 341
349 343 340 336 332 328 326 324 320 318 316 318 319 321 323 327 311 258 312 226 147 128 102 88 121 143 166 189 185 202 229 226 230 240 232 196 217 278 301 285 277 295 299 329 332
345 343 339 336 333 328 322 319 316 312 312 311 318 322 327 331 281 1 35 137 173 174 144 102 102 113 189 175 185 187 236 221 211 230 236 240 200 204 255 291 312 322 322 328 326
342 338 336 334 332 328 322 318 313 308 305 308 318 327 331 331 139 27 109 124 145 165 152 130 136 154 185 202 194 225 232 235 234 248 273 256 305 238 223 262 295 299 302 303 316
342 337 333 331 329 326 322 316 310 305 298 292 318 338 357 273 254 97 173 156 144 144 145 146 157 154 192 196 204 218 227 252 244 259 263 274 261 266 273 275 281 292 299 299 301
341 337 333 330 328 326 321 315 307 300 290 288 320 348 332 266 195 110 193 185 194 179 167 179 189 199 164 208 206 163 222 259 266 248 238 253 263 271 292 6 317 307 308 308 317
340 338 335 329 327 326 321 314 305 293 268 242 260 100 252 245 182 293 211 239 238 212 216 209 215 218 181 185 140 229 262 252 239 239 239 225 255 250 79 28 261 308 319 337 344
337 335 333 329 327 326 321 313 295 270 210 187 168 145 254 249 285 269 243 249 241 232 242 230 212 233 246 124 92 217 234 247 71 242 239 212 239 111 32 22 329 322 308 327 331
336 334 332 329 329 330 332 354 18 187 172 156 152 197 266 303 259 311 213 216 176 216 226 125 151 102 174 217 231 171 234 210 154 48 337 215 243 13 4 347 312 301 307 312 316
335 333 331 331 334 343 68 93 89 89 106 135 193 261 255 316 303 285 264 244 206 151 147 146 122 199 155 205 232 177 224 227 257 7 322 277 274 289 300 276 264 289 296 278 297
335 332 332 331 342 358 130 103 263 131 190 241 299 289 304 324 294 212 108 129 132 82 261 63 220 225 246 234 240 240 242 245 272 186 324 299 298 292 286 281 250 226 250 266 266
335 333 332 335 358 39 66 72 74 284 309 243 255 255 260 278 296 281 183 200 189 246 182 221 236 211 237 184 193 203 211 225 290 290 312 308 303 291 285 273 267 272 244 283 289
337 336 336 347 114 73 69 74 343 169 273 291 208 207 219 173 233 260 181 172 202 218 216 235 271 186 215 167 172 186 204 190 265 310 274 305 290 168 319 271 226 321 310 264 275
344 344 356 108 99 13 60 342 336 179 310 39 206 168 151 179 250 214 203 183 191 250 187 249 189 191 186 226 205 209 199 202 239 296 299 329 292 263 240 334 149 17 352 330 313
1 10 29 108 99 73 325 331 354 191 246 35 78 115 121 227 338 172 182 176 231 200 197 309 194 193 232 230 189 158 158 223 274 287 281 237 250 262 213 256 212 328 325 338 345
8 17 56 71 70 346 337 341 151 236 245 100 44 10 346 288 266 310 215 120 45 215 232 263 223 238 246 125 169 136 167 120 149 244 252 184 257 185 209 217 240 313 323 316 331
8 28 62 51 341 337 339 117 235 224 20 350 342 339 331 277 290 324 291 215 238 230 231 238 219 223 199 164 140 167 202 290 239 211 282 130 285 260 241 240 257 293 302 315 336
346 356 14 23 342 338 359 129 225 41 294 343 302 310 261 261 230 336 316 239 62 272 254 250 243 180 181 227 196 171 209 252 288 268 295 230 248 231 183 265 284 297 311 318 338
324 312 19 341 342 337 116 193 242 206 320 301 307 263 262 159 347 321 311 222 88 34 294 273 235 302 78 7 222 147 215 356 260 298 274 246 261 261 260 230 282 341 341 348 342
334 316 10 333 331 28 92 262 246 247 334 254 262 254 261 297 324 304 277 231 176 89 70 338 276 18 42 88 91 255 146 183 178 258 257 255 273 255 278 299 306 312 326 339 340
0 309 359 342 66 55 223 262 278 259 338 255 253 264 273 290 273 264 261 278 216 152 120 79 252 210 170 229 253 207 206 160 244 235 265 293 259 231 247 290 304 301 315 324 326
353 289 350 359 31 49 213 314 318 271 268 262 264 267 256 231 242 245 260 261 190 158 166 191 273 247 246 163 276 259 250 220 228 221 236 282 269 219 245 289 307 307 307 311 308
356 295 345 0 70 345 325 287 272 286 323 310 283 36 5 250 272 249 257 51 63 206 196 168 216 278 243 160 94 223 206 220 230 243 242 256 249 151 260 283 304 299 302 299 298
342 341 352 45 28 42 347 282 297 343 262 346 309 67 306 248 243 270 259 243 86 201 242 235 243 237 253 273 173 236 217 218 227 243 256 245 273 279 283 290 298 293 290 291 302
23 54 42 315 38 345 274 304 295 296 355 345 145 66 3 280 279 261 277 287 285 288 279 233 255 250 257 264 264 263 269 260 249 250 249 266 266 275 278 291 297 298 293 299 299
14 339 80 286 289 282 196 214 265 254 297 291 263 318 321 273 267 285 285 280 266 272 238 190 264 285 262 260 255 266 265 262 258 260 259 260 265 269 279 282 279 295 300 295 301
35 331 276 195 250 271 232 265 213 340 274 241 274 313 289 278 286 280 269 262 256 258 262 267 265 285 275 287 281 267 251 252 254 250 249 257 267 286 291 289 288 288 294 294 302